Regional Weather Roundup
Issued by NWS New Orleans/Baton Rouge, LA

Home | Current Version | Previous Version | Graphics & Text | Print | Product List | Glossary On
Versions: 1 2 3 4 5 6 7 8 9 10 11 12 13 14 15 16 17 18 19 20 21 22 23 24 25 26 27 28 29 30 31 32 33 34 35 36 37 38 39 40 41 42 43 44 45 46 47 48 49 50
265
ASUS44 KLIX 301310
RWRLIX
NEW ORLEANS REGIONAL WEATHER ROUNDUP
NATIONAL WEATHER SERVICE NEW ORLEANS LA
800 AM CDT TUE SEP 30 2014

NOTE: "FAIR" INDICATES FEW OR NO CLOUDS BELOW 12,000 FEET WITH NO
      SIGNIFICANT WEATHER AND/OR OBSTRUCTIONS TO VISIBILITY.
      SKY/WX - SKY CONDITION AND SIGNIFICANT WEATHER.
      TMP - AIR TEMPERATURE.     DP    - DEWPOINT TEMPERATURE.
      RH  - RELATIVE HUMIDITY.   PRES  - PRESSURE.
      HI  - HEAT INDEX.          WCI   - WIND CHILL INDEX.

*  THESE STATIONS ARE NOT NWS OR FAA STATIONS AND ARE NOT UNDER
   NWS QUALITY CONTROL.

LAZ038-040-048-061>063-065>067-069-301400-
SOUTHEAST LOUISIANA

CITY           SKY/WX    TMP DP  RH WIND       PRES   REMARKS
N.O. AUDUBON     N/A     79  73  83 MISG        N/A
N.O. INTL ARPT MOSUNNY   77  72  84 E6        29.89R
N.O. LAKEFRONT SUNNY     76  72  87 E10       29.90R
N.O. DOWNTOWN*   N/A     75  70  83 NE3       29.90S
SLIDELL        SUNNY     73  70  90 NE3       29.90S
BATON ROUGE    SUNNY     72  69  90 NE3       29.90S
BOOTHVILLE     PTSUNNY   78  75  90 CALM      29.89R
BELLE CHASSE   MOSUNNY   76  72  87 NE6       29.89R
BOGALUSA*        N/A     71  68  90 CALM      29.93R FOG
GALLIANO*      NOT AVBL
NEW ROADS*       N/A     70  70  98 CALM      29.91R
GONZALES*        N/A     71  71 100 CALM      29.90R FOG
HAMMOND*       SUNNY     73  70  88 CALM      29.92R
HOUMA*         SUNNY    N/A N/A N/A N7        29.89R FOG
PORT FOURCHON* MOSUNNY   79  75  89 CALM      29.92R

$$

MSZ070-080>082-301400-
SOUTHERN MISSISSIPPI

CITY           SKY/WX    TMP DP  RH WIND       PRES   REMARKS
MCCOMB         SUNNY     71  67  87 CALM      29.92R
GULFPORT       SUNNY     73  70  90 NE6       29.90S
BILOXI         SUNNY     73  73 100 NE7       29.91R
PASCAGOULA     MOSUNNY   72  70  93 NE6       29.91R
STENNIS ARPT*  SUNNY     73  68  83 CALM      29.91R

$$

COASTAL OBSERVATIONS
LAKE AND NEARSHORE STATIONS

STATION/POSITION TIME  TEMP    WIND        PRES    WAVE
                       AIR SEA DIR/SP/G            HT/PER
                 (UTC) (F)     (DEG/KT/KT) (MB)    (FT/S)
PASCAGOULA       1300   73      40/  7/ 11 1012.0
WAVELAND YACHT   1300   74      60/  8/  9 1011.9
GRAND ISLE       1300   78 80   50/  5/  7 1012.5
SOUTHWEST PASS   1300   82 85   30/  5/  6 1012.1
NEW CANAL        1300   76 77   80/  8/ 11 1012.6
SHELL BEACH      1300   77 74   40/  9/ 10 1012.1

OFFSHORE STATIONS

STATION/POSITION TIME  TEMP    WIND        PRES    WAVE
                       AIR SEA DIR/SP/G            HT/PER
                 (UTC) (F)     (DEG/KT/KT) (MB)    (FT/S)
64 S DAUPHIN ISL 1211   77 82  100/  6/  8 1012.1    2/ 4

$$




USA.gov is the U.S. government's official web portal to all federal, state and local government web resources and services.